Voltar ao catálogo

THORAD AGENA D DEB

AtivoPO
NORAD 42521·DEBRIS·🇺🇸 United States

Lançado Apr 8, 1970 de Vandenberg Space Force Base

Loading…

Próximas Passagens (próximas 24 horas)

TLE

AtualizadoSource: Space-Track

Época: Sep 14, 2026, 15:59 UTC

1 42521U 70025SB  26257.66615697  .00000167  00000-0  20605-3 0  9996
2 42521  99.9402 325.5904 0013500 283.7317  76.2331 13.80678787644031

Acompanhe THORAD AGENA D DEB em tempo real com AllMySat

Download on the App Store